Preview of NWS' New Version of Forecast
This preview is not operational and should not be used for support decisions.

Regional Weather Roundup (RWR)

Issued by National Weather Service (NWS)

                            
000
ASUS42 KTBW 241015
RWRFL 
FLORIDA REGIONAL WEATHER ROUNDUP
NATIONAL WEATHER SERVICE TAMPA BAY RUSKIN FL
600 AM EDT MON JUN 24 2019

NOTE: "FAIR" INDICATES FEW OR NO CLOUDS BELOW 12,000 FEET WITH NO
SIGNIFICANT WEATHER AND/OR OBSTRUCTIONS TO VISIBILITY.

FLZ001>010-012>015-112-114-115-241100-
PANHANDLE FLORIDA
  
CITY           SKY/WX    TMP DP  RH WIND       PRES   REMARKS
PENSACOLA      FAIR      83  78  85 S12       29.94F                  
PENSACOLA NAS  FAIR      83  77  82 S16G23    29.94S                  
MILTON NAS     FAIR      80  76  87 S8        29.95                   
CRESTVIEW      FAIR      77  74  90 CALM      29.97S FOG              
DUKE FIELD     FAIR      79  77  96 S6        29.96R                  
VALPARAISO     FAIR      83  75  75 S13       29.95R                  
MARY ESTHER    PTCLDY    83  73  72 S10       29.95R                  
TRI COUNTY     FAIR      74  74 100 CALM      29.98S                  
PANAMA CITY    FAIR      81  75  82 S8        29.96S                  
TYNDALL AFB    FAIR      82  75  78 SW12      29.97R                  
APALACHICOLA   FAIR      82  75  79 SW10      29.99R                  

STATION/POSITION SKY/WX   TEMP    WIND        PRES    WAVE   SWELL
                          AIR SEA DIR/SP/G            HT/PER HT/PER
                          (F)     (DEG/KT/KT) (MB)    (FT/S) (FT/S)
PANAMA CITY BEAC           83 85  200/ 14/ 16 1015.2
TOWER C          NOT AVBL

$$
FLZ011-016>038-118-127-128-134-139-239-241100-
NORTH FLORIDA
  
CITY           SKY/WX    TMP DP  RH WIND       PRES   REMARKS
MARIANNA       FAIR      75  75 100 S6        29.96S                  
TALLAHASSEE    FAIR      73  73 100 CALM      29.98S                  
PERRY            N/A     74  73  97 CALM      30.00S FOG              
LIVE OAK       FOG       73  73 100 CALM      30.00R VSB 1/4          
CROSS CITY     FAIR      73  73  98 CALM      30.00F FOG              
LAKE CITY      FAIR      73  72  94 CALM      30.01S                  
GAINESVILLE    MOCLDY    73  73 100 CALM      30.03S                  
PALATKA        FAIR      73  72  94 CALM      30.01R FOG              
MAYPORT NAS    MOCLDY    77  73  87 CALM      30.00R                  
JACKSONVILLE   MOCLDY    73  71  93 CALM      29.99S                  
JAX NAS        FAIR      78  69  73 CALM      30.01R                  
JAX CECIL      FAIR      70  68  94 CALM      30.00S                  
FERNANDINA BEA FAIR      75  72  89 SW7       30.00R                  
ST AUGUSTINE   FAIR      73  71  93 SW3       30.01R                  
PALM COAST     FAIR      73  71  93 CALM      30.01R                  

STATION/POSITION SKY/WX   TEMP    WIND        PRES    WAVE   SWELL
                          AIR SEA DIR/SP/G            HT/PER HT/PER
                          (F)     (DEG/KT/KT) (MB)    (FT/S) (FT/S)
SHELL POINT      NOT AVBL
KEATON BEACH               83     260/  8/ 10 1015.7F
CEDAR KEY                  83     270/  4/  5 1015.9R
FERNANDINA                 80 83   CALM  /  3 1016.2F
30.7N   81.3W                 82                N/A     1/10
MAYPORT                    78 82   CALM  /  2 1016.2R
ST AUGUSTINE               75 80  240/  4/  5 1016.2R

$$
FLZ040-043>046-052-053-057-058-063-144-241100-
INTERIOR CENTRAL FLORIDA
  
CITY           SKY/WX    TMP DP  RH WIND       PRES   REMARKS
OCALA          MOCLDY    73  72  94 CALM      30.02R                  
LEESBURG       FAIR      74  73  97 CALM      30.02S                  
SANFORD        FAIR      76  73  91 CALM      30.01R                  
ORLANDO EXEC   FAIR      79  74  84 W3        30.01R                  
ORLANDO INTL   FAIR      77  73  87 CALM      30.01R                  
KISSIMMEE      FAIR      76  73  91 NW5       30.02R                  
WINTER HAVEN   FAIR      78  74  87 W3        30.02S                  
LAKELAND       FAIR      73  72  94 CALM      30.03R                  
BARTOW         FAIR      73  72  94 CALM      30.01S                  
SEBRING        FAIR      77  75  93 CALM      30.01S                  
OKEECHOBEE     FAIR      75  72  88 SW5       30.00S                  

$$
FLZ041-047-054-059-064-141-147-241100-
EAST CENTRAL FLORIDA
  
CITY           SKY/WX    TMP DP  RH WIND       PRES   REMARKS
DAYTONA BEACH  MOCLDY    74  74 100 SW3       30.01R                  
DELAND         FAIR      77  73  88 SW5       30.01R                  
JFK SPACE CTR  FAIR      73  62  66 CALM      30.00R                  
CAPE CANAVERAL FAIR      72  38  29 CALM      30.00R                  
PATRICK AFB    FAIR      78  77  99 CALM      30.00R                  
MELBOURNE      FAIR      77  74  90 W5        30.00R                  
VERO BEACH     FAIR      79  74  84 SW7       29.99S                  
FT PIERCE      FAIR      78  72  81 SW6       29.99S                  
STUART         CLOUDY    79  72  78 SW5       30.01S                  

STATION/POSITION SKY/WX   TEMP    WIND        PRES    WAVE   SWELL
                          AIR SEA DIR/SP/G            HT/PER HT/PER
                          (F)     (DEG/KT/KT) (MB)    (FT/S) (FT/S)
TRIDENT PIER               74 75   60/  1/  2 1017.1R
28.4N   80.5W                 75                N/A     1/10
27.5N   80.2W                 81                N/A     1/10

$$
FLZ050-056-061-142-242-148-248-149-249-151-251-155-255-
160-260-241100-
WEST CENTRAL FLORIDA
  
CITY           SKY/WX    TMP DP  RH WIND       PRES   REMARKS
CRYSTAL RIVER  FAIR     N/A N/A N/A CALM      30.01S HAZE             
INVERNESS      FAIR      72  72 100 CALM      30.02R FOG              
BROOKSVILLE    FOG       70  69  97 CALM      30.02R VSB 1/4          
CLEARWATER AIR FAIR      75  73  94 CALM      30.01R                  
ST PETE CLEARW FAIR      75  73  93 CALM      30.01S                  
TAMPA INTL     FAIR      80  76  87 SE3       30.02R                  
PLANT CITY       N/A    N/A N/A N/A MISG        N/A                   
MACDILL AFB    FAIR      76  74  93 CALM      30.01S                  
PETER O KNIGHT MOCLDY   N/A N/A N/A CALM      30.02R                  
ST PETERSBURG  FAIR      82  75  79 CALM      30.00R                  
SARASOTA       FAIR      77  74  90 SE5       30.00S                  
VENICE         FAIR      77  77 100 E5        30.02S                  

STATION/POSITION SKY/WX   TEMP    WIND        PRES    WAVE   SWELL
                          AIR SEA DIR/SP/G            HT/PER HT/PER
                          (F)     (DEG/KT/KT) (MB)    (FT/S) (FT/S)
27.3N   84.2W                 85                N/A     1/ 7
CLEARWATER BEACH                  250/  2/  3   N/A
MIDDLE TAMPA BAY           80     140/  7/  7 1016.3F
VENICE                     78 86   80/  4/  5 1016.4R

$$
FLZ066-069-070-075>078-162-262-165-265-241100-
SOUTHWEST FLORIDA AND KEYS
  
CITY           SKY/WX    TMP DP  RH WIND       PRES   REMARKS
PUNTA GORDA    FAIR      78  75  90 SW3       30.03R                  
FT MYERS       FAIR      81  72  74 CALM      30.01S                  
SOUTHWEST INTL FAIR      80  76  87 CALM      30.01F                  
NAPLES         FAIR      82  78  88 CALM      30.01F                  
IMMOKALEE        N/A     77  75  94 CALM      30.00S                  
MARATHON       MOCLDY    84  75  74 CALM      30.02S                  
KEY WEST NAS   FAIR      83  75  77 SE3       30.02S                  
KEY WEST INTL  FAIR      83  75  77 CALM      30.02S                  

STATION/POSITION SKY/WX   TEMP    WIND        PRES    WAVE   SWELL
                          AIR SEA DIR/SP/G            HT/PER HT/PER
                          (F)     (DEG/KT/KT) (MB)    (FT/S) (FT/S)
NAPLES                     83 90              1016.4F
DRY TORTUGAS     NOT AVBL

$$
FLZ067-068-071>074-168-172>174-241100-
SOUTHEAST FLORIDA 
  
CITY           SKY/WX    TMP DP  RH WIND       PRES   REMARKS
W PALM BEACH   FAIR      81  75  82 SW6       30.01S                  
FT LAUDER-EXEC FAIR      80  75  84 SW5       30.01S                  
FT LAUDERDALE  FAIR      81  75  82 SW5       30.01S                  
POMPANO BEACH  FAIR      82  75  79 SW5       30.01S                  
PEMBROKE PINES MOCLDY    82  74  76 S3        30.03S                  
OPA LOCKA      FAIR      81  74  79 SW3       30.02S                  
MIAMI          FAIR      83  74  74 SW5       30.02S                  
WEST KENDALL   FAIR      78  75  90 CALM      30.02S                  
HOMESTEAD      FAIR      79  74  85 CALM      30.02R                  

STATION/POSITION SKY/WX   TEMP    WIND        PRES    WAVE   SWELL
                          AIR SEA DIR/SP/G            HT/PER HT/PER
                          (F)     (DEG/KT/KT) (MB)    (FT/S) (FT/S)
VIRGINIA KEY                      250/  5/  7   N/A
LAKE WORTH                 81 84  220/  6/ 10 1017.0F
FOWEY ROCKS                83 84  180/  7/  8 1016.8S
SETTLEMENT POINT           84     220/ 11/ 12 1016.1R

$$